Theta_e
329 330 330 329 328 328 327 327 326 324 320 319 317 317 317 318 315 314 314 313 313 312 311 312 313 311 311 310 310 308 306 305 302 302 302 301 300 300 300 300 299 297
328 329 329 328 327 327 327 327 326 323 321 319 319 320 318 315 312 311 309 308 309 312 312 311 311 310 309 307 305 303 302 301 300 300 299 299 298 299 298 298 297 296
327 328 327 326 326 326 327 327 326 324 323 322 320 320 314 312 309 308 306 307 308 310 313 312 308 308 308 306 304 302 301 299 298 298 297 297 296 296 296 296 295 296
325 326 326 326 326 326 327 325 325 323 322 319 319 314 310 309 308 305 305 305 308 310 312 307 307 306 305 303 302 300 299 297 297 297 296 295 296 295 295 294 294 294
324 325 326 326 326 326 326 324 323 321 317 317 314 308 306 304 305 303 303 304 304 304 304 305 305 303 302 301 299 297 296 295 295 295 294 293 294 294 293 293 292 292
323 324 324 324 324 324 323 322 321 318 315 313 307 306 304 304 303 301 302 302 302 303 303 302 301 300 299 298 297 296 294 294 294 294 293 292 292 292 293 293 292 291
320 321 322 323 323 323 322 321 319 315 314 312 307 304 304 302 302 301 301 300 301 301 300 299 298 297 297 296 296 295 295 294 293 293 292 291 291 291 292 292 291 290
318 319 320 320 320 321 319 318 316 314 311 307 305 300 300 300 300 300 300 299 300 300 299 298 297 296 295 295 294 294 293 293 293 293 292 291 291 290 291 291 290 289
315 314 315 315 315 313 313 311 311 308 305 305 300 297 298 298 298 298 299 299 299 298 298 296 296 295 295 295 294 293 292 292 293 292 291 291 290 290 289 290 290 289
311 310 309 309 310 308 307 305 303 301 301 302 298 297 297 295 296 296 297 297 297 296 296 295 294 293 293 293 293 292 292 291 292 292 292 291 291 289 289 290 289 288
307 307 307 306 306 304 302 299 298 298 298 299 298 298 295 294 295 295 296 297 296 295 294 293 293 292 292 292 292 292 292 291 291 291 291 290 290 289 288 289 288 287
304 304 304 304 302 299 297 296 296 297 297 296 298 296 295 293 294 294 295 296 295 294 293 292 291 291 291 291 291 291 291 291 291 290 289 289 288 288 288 288 287 287
301 302 302 300 298 296 295 294 294 294 294 295 295 295 295 292 293 294 294 294 293 292 291 291 290 290 290 290 290 290 290 290 289 289 288 288 287 287 287 287 287 286
299 298 297 296 295 294 294 294 294 293 293 293 292 293 293 293 292 292 292 292 292 291 290 290 289 289 290 289 290 290 289 289 289 288 287 287 286 286 286 286 286 285
295 294 295 295 293 293 293 293 293 293 292 291 291 291 292 291 291 291 290 290 289 289 289 289 289 289 290 289 289 289 289 289 288 287 287 286 285 285 285 285 285 285
296 294 293 292 291 292 293 291 291 291 291 291 291 291 291 290 289 289 289 288 287 287 288 289 289 289 287 288 289 289 289 289 288 288 287 286 285 284 284 284 284 284
293 293 293 291 292 291 290 290 290 289 289 289 289 288 288 288 288 288 287 287 287 287 287 288 288 287 287 289 289 289 288 288 287 287 287 286 285 284 283 282 283 283
291 290 292 291 290 290 289 289 288 288 288 288 287 287 286 287 287 287 286 287 287 287 287 287 287 287 288 288 288 288 288 288 287 287 286 285 284 284 283 283 282 282
291 290 290 290 290 289 289 288 288 287 286 286 286 286 286 286 286 286 286 286 286 287 287 288 287 288 289 288 288 287 287 287 287 286 285 284 284 283 283 282 282 282
290 290 290 290 289 288 287 287 287 287 286 286 286 285 285 285 285 285 285 285 286 287 287 288 288 288 289 288 287 287 286 286 286 285 284 283 283 283 282 282 282 282
290 290 290 289 289 287 286 286 286 286 285 285 285 285 285 285 284 284 285 285 286 287 288 288 288 288 288 287 287 287 286 285 285 284 283 283 282 282 282 282 282 281
291 290 289 289 288 287 286 286 286 286 285 285 285 285 285 285 285 285 285 285 286 287 287 288 288 288 287 287 287 286 285 284 284 283 282 282 281 281 281 281 281 280
291 290 289 287 287 286 286 286 286 285 285 285 285 285 284 284 284 284 284 285 285 286 286 287 287 287 287 286 286 286 284 283 283 282 282 281 281 281 280 280 280 280
291 290 288 287 286 286 286 286 286 285 285 285 284 284 283 284 283 283 284 285 285 285 286 286 286 286 286 286 286 285 283 283 282 282 281 280 280 280 280 279 279 279
290 289 288 287 287 287 286 286 285 285 284 284 284 284 283 283 282 282 282 284 285 285 285 286 286 285 286 286 285 284 283 283 282 282 280 279 279 278 279 279 278 279
289 288 288 287 287 286 286 286 285 284 283 283 284 283 282 282 281 282 281 282 283 284 284 285 285 285 285 285 284 284 283 282 282 281 280 279 279 278 277 277 277 277
Wind_Speed
16 15 14 14 13 12 13 13 11 12 7 7 8 8 8 7 9 8 5 5 5 6 7 7 8 7 5 6 7 6 6 7 5 4 5 5 6 6 5 5 4 4
17 14 8 11 12 11 11 12 12 10 10 8 7 9 7 7 7 7 6 5 5 6 8 7 6 7 7 6 7 6 6 6 6 3 5 6 6 5 5 6 5 5
15 12 13 13 12 13 13 12 13 10 12 11 10 9 6 8 9 7 7 6 6 7 8 7 6 6 6 6 6 6 6 7 7 5 6 6 5 5 5 5 5 4
15 14 14 13 12 12 12 11 10 7 8 9 9 8 6 6 8 9 8 6 6 8 9 7 7 6 6 6 6 5 6 6 6 6 6 5 4 5 5 5 5 4
12 12 12 11 11 11 12 11 12 10 9 10 7 6 7 6 7 7 6 6 6 8 7 7 7 7 7 6 6 7 6 6 6 6 6 6 4 5 4 5 5 5
9 9 9 10 9 10 11 12 12 11 11 10 8 8 7 8 8 8 8 6 5 8 7 6 7 6 6 6 6 6 6 6 6 6 6 6 5 4 3 5 5 5
10 10 10 10 11 11 12 12 11 10 11 8 9 9 11 8 8 8 8 7 8 8 8 7 8 7 6 6 6 7 6 7 7 6 7 6 6 6 4 4 4 5
10 8 8 9 11 11 11 10 10 10 11 9 11 9 10 10 9 8 7 8 9 9 8 8 8 8 7 6 7 8 7 5 6 7 7 7 6 6 5 3 4 6
6 7 7 9 10 9 10 9 10 9 10 12 10 9 8 6 9 9 8 8 9 9 10 8 8 8 7 7 7 8 9 7 6 6 7 8 7 7 6 5 5 5
7 7 8 9 10 8 9 8 8 9 9 10 11 9 10 8 7 8 8 9 9 9 9 9 9 7 7 7 8 8 8 9 7 6 6 6 7 7 6 5 6 5
9 8 9 9 9 7 8 8 8 9 7 10 12 10 10 9 7 5 9 10 9 10 10 9 9 9 8 7 7 6 7 7 7 6 6 6 6 6 6 6 5 5
8 8 9 9 8 7 8 8 8 8 8 8 11 12 13 10 10 7 8 10 9 10 10 9 8 8 8 8 8 7 6 6 6 7 6 6 6 6 6 5 5 5
8 8 7 7 7 7 7 8 8 8 9 11 10 11 13 11 8 9 7 10 9 9 9 9 8 8 7 7 8 7 7 7 8 7 7 6 6 6 6 5 5 5
8 6 7 7 7 7 8 8 9 8 8 6 9 11 11 11 11 10 8 8 9 8 7 7 8 8 8 8 7 7 7 7 8 8 7 7 7 6 6 5 5 5
5 4 4 7 7 8 8 8 8 9 9 9 8 8 6 6 8 9 11 9 7 8 8 6 7 7 6 8 8 8 7 8 8 8 8 8 8 7 6 6 5 5
5 6 6 6 7 8 8 8 8 8 9 9 9 9 6 5 8 8 8 10 10 8 7 6 5 4 9 13 10 9 8 7 6 7 7 8 8 8 6 6 5 5
5 5 6 7 7 6 7 9 9 8 8 9 10 8 7 8 8 10 8 8 9 9 9 6 5 6 12 11 10 11 9 8 8 7 7 7 7 7 7 7 6 6
6 5 6 7 7 8 8 8 8 9 9 10 9 6 6 7 9 9 9 8 7 8 8 7 6 10 14 14 13 11 8 8 7 7 6 6 6 6 6 6 6 6
7 8 7 7 8 8 9 9 9 9 7 6 5 6 8 8 8 9 8 8 9 10 8 8 7 13 14 15 13 12 10 9 6 6 6 6 6 6 6 6 6 5
8 8 9 8 8 8 8 9 9 10 5 5 5 6 7 7 7 9 9 9 8 9 8 8 9 13 15 15 14 13 11 8 7 7 6 6 6 6 5 6 6 6
8 8 8 8 9 7 5 7 9 6 7 6 7 7 7 8 8 8 8 7 7 6 8 8 8 15 15 16 15 14 13 8 7 6 6 6 5 5 5 5 5 5
9 8 8 8 9 9 9 9 8 9 9 6 6 4 3 4 4 4 7 6 5 6 8 9 9 16 16 16 16 15 13 7 7 7 6 6 6 6 5 5 4 5
9 10 9 8 8 9 9 9 9 9 4 6 6 6 6 6 5 6 6 7 9 7 7 8 10 14 16 17 17 17 11 6 6 5 5 6 6 6 5 5 4 5
8 9 8 8 8 9 9 7 3 3 5 5 6 7 7 6 6 6 5 5 9 7 9 11 9 14 17 17 17 16 9 7 6 6 6 6 5 5 4 4 5 7
7 7 7 8 9 8 8 8 8 6 4 5 4 4 5 5 5 6 6 5 5 8 11 10 9 13 16 17 17 15 10 6 6 6 6 6 6 5 5 4 5 6
5 6 6 7 8 7 6 6 4 6 6 5 5 5 6 5 5 6 8 6 6 7 6 7 10 10 13 17 16 15 12 6 5 6 7 7 6 6 6 5 5 5
Wind_Direction
212 212 211 206 206 204 199 196 194 189 172 169 169 174 183 161 145 165 167 157 150 145 144 142 155 153 145 146 147 149 146 143 129 124 120 117 122 133 137 142 129 120
213 212 201 205 204 198 198 195 190 181 185 175 181 166 164 145 146 148 163 155 159 149 139 139 149 150 147 143 149 142 133 131 122 122 127 122 125 131 130 130 121 122
211 210 205 202 199 195 195 194 192 185 187 187 185 181 145 155 150 155 157 167 155 139 150 159 146 149 147 140 142 138 133 129 127 130 122 124 129 134 131 130 122 133
208 206 206 202 199 196 194 190 188 169 176 173 185 172 145 152 150 148 162 175 145 143 157 157 148 143 142 140 140 128 124 120 119 124 117 119 127 131 131 123 126 130
202 203 203 200 200 197 192 187 184 180 171 178 160 148 148 146 148 136 150 168 140 128 143 143 137 141 142 144 141 127 122 118 123 128 130 132 132 127 126 132 136 133
202 203 200 199 194 188 191 191 182 178 171 167 165 159 159 159 145 143 155 156 132 128 134 135 137 136 146 141 136 127 127 130 137 136 133 134 132 126 131 139 139 132
197 199 197 198 198 194 192 189 183 174 176 165 155 166 163 155 149 146 152 146 134 138 143 145 144 144 148 149 134 130 124 130 140 141 137 132 129 129 132 136 132 120
199 195 192 191 193 196 194 182 178 178 166 157 166 159 169 149 152 150 142 139 136 142 143 144 148 149 154 149 139 132 131 137 149 149 137 132 135 140 141 131 126 119
185 188 184 188 189 188 188 178 173 162 158 160 153 153 172 160 146 147 146 136 134 143 144 149 151 152 157 147 141 140 144 152 156 151 142 142 144 145 142 134 123 121
186 183 183 186 190 184 177 168 157 156 162 151 152 154 161 159 138 136 136 138 139 144 148 151 151 151 152 147 143 146 148 151 154 146 140 142 140 143 142 135 130 130
179 182 187 188 183 170 167 156 155 154 165 154 153 159 154 146 150 133 137 143 149 154 153 156 155 153 147 142 141 143 144 144 143 135 133 132 134 132 129 126 131 134
167 179 187 182 171 164 159 156 151 156 160 154 164 152 153 151 155 161 148 150 151 151 151 150 147 149 145 145 146 142 137 133 128 128 128 127 125 121 123 125 133 133
183 186 177 169 167 159 152 151 155 156 162 166 162 162 153 149 154 152 152 146 146 142 147 145 145 144 141 143 143 141 139 134 132 128 128 125 121 120 120 124 126 127
177 173 168 164 155 150 158 159 156 156 158 157 154 161 157 151 155 151 139 136 139 139 139 140 141 143 145 145 143 142 138 137 137 136 133 127 122 122 125 123 122 123
164 155 143 145 146 147 150 156 157 155 152 156 160 156 156 108 117 132 135 133 129 134 142 145 150 154 154 153 144 142 140 139 140 139 139 134 130 128 127 126 126 122
158 150 146 141 147 153 155 151 149 152 153 156 155 149 149 134 123 126 137 140 141 143 147 149 151 141 158 154 150 145 144 139 136 140 140 139 137 135 132 130 130 124
146 153 149 149 151 143 143 151 152 149 152 150 146 139 144 148 138 139 145 143 142 146 150 149 142 149 155 149 142 143 141 141 143 140 141 140 142 144 143 141 138 138
151 142 153 151 148 155 154 153 149 152 157 155 146 141 146 142 146 148 147 146 138 139 144 147 144 153 155 149 150 147 140 140 138 139 143 142 142 141 140 145 149 150
156 156 155 157 160 158 157 151 154 156 144 142 145 143 142 150 151 146 148 147 146 147 146 145 143 160 153 149 148 149 142 135 133 138 139 143 142 140 145 149 151 150
160 162 164 164 155 156 150 155 161 165 152 140 129 145 156 149 149 152 150 153 151 143 141 146 147 157 148 149 150 149 143 129 128 132 133 136 138 141 147 150 157 157
167 168 167 159 161 160 151 162 168 145 148 158 162 162 161 161 157 155 153 146 142 141 139 142 146 151 150 150 150 148 142 127 127 128 128 130 134 141 144 147 151 150
170 168 163 163 165 168 170 172 170 168 166 160 158 155 139 129 140 136 147 141 137 136 135 138 148 155 153 153 152 150 140 128 136 136 135 136 138 145 149 147 150 152
176 172 170 168 168 168 177 176 173 172 158 159 155 159 155 161 147 149 148 146 154 155 143 141 152 160 157 157 155 150 143 135 137 134 135 140 147 148 148 150 156 163
180 175 169 168 170 181 180 178 150 135 152 168 160 153 158 153 147 139 148 156 160 162 163 154 156 162 161 159 157 157 145 141 146 141 140 144 145 150 149 157 162 172
174 174 175 172 178 182 176 171 171 167 125 154 150 137 130 136 140 144 147 163 177 159 162 156 151 161 163 162 160 158 149 145 146 144 145 154 153 155 162 164 168 179
177 175 175 174 176 169 166 162 129 134 156 153 143 150 147 149 152 155 151 160 160 173 169 162 156 158 164 164 163 162 160 152 154 150 159 160 161 163 167 177 178 181